EDT,Max TemperatureF,Mean TemperatureF,Min TemperatureF,Max Dew PointF,MeanDew PointF,Min DewpointF,Max Humidity, Mean Humidity, Min Humidity, Max Sea Level PressureIn, Mean Sea Level PressureIn, Min Sea Level PressureIn, Max VisibilityMiles, Mean VisibilityMiles, Min VisibilityMiles, Max Wind SpeedMPH, Mean Wind SpeedMPH, Max Gust SpeedMPH,PrecipitationIn, CloudCover, Events, WindDirDegrees
2012-10-1,60,57,54,56,54,51,93,87,80,29.97,29.94,29.90,10,6,2,9,3,12,0.19,7,Rain,133
2012-10-2,68,63,58,66,61,57,100,94,87,30.00,29.92,29.88,6,2,0,8,2,9,0.48,8,Fog-Rain,58
2012-10-3,80,73,65,66,64,61,100,81,62,30.17,30.09,29.99,10,6,0,10,2,13,T,6,Fog,143
2012-10-4,78,67,56,62,56,49,81,59,36,30.23,30.19,30.15,10,10,10,18,6,23,T,1,,292
2012-10-5,79,67,54,56,52,48,93,64,35,30.22,30.13,30.02,10,10,10,13,4,17,0.00,0,,296
2012-10-6,75,64,52,57,50,37,87,68,48,30.06,29.98,29.92,10,10,10,24,7,31,0.00,3,,297
2012-10-7,55,48,40,47,44,38,93,74,54,30.22,30.11,30.05,10,8,2,12,4,14,0.36,7,Rain,19
2012-10-8,47,43,39,45,41,38,100,88,76,30.30,30.24,30.20,10,9,3,8,2,10,0.08,7,Rain,360
2012-10-9,61,53,45,49,44,41,93,75,57,30.22,30.17,30.09,10,10,10,9,2,13,0.00,8,,19
2012-10-10,66,55,44,47,44,36,93,87,80,30.16,30.06,30.00,10,10,3,25,8,35,0.00,4,,282
2012-10-11,65,53,41,40,35,31,76,55,34,30.32,30.25,30.17,10,10,10,14,3,18,0.00,0,,121
2012-10-12,71,57,43,42,39,34,83,56,28,30.40,30.25,30.19,10,10,10,18,6,23,0.00,0,,299
2012-10-13,63,51,39,43,38,35,85,64,42,30.52,30.43,30.34,10,10,10,15,4,20,0.00,0,,148
2012-10-14,73,57,41,56,47,39,96,73,49,30.32,30.18,30.00,10,10,10,15,4,20,0.00,2,,152
2012-10-15,73,63,53,61,51,35,93,64,34,29.97,29.84,29.73,10,10,9,25,8,32,0.09,5,Rain,276
2012-10-16,69,57,45,39,36,31,66,46,26,29.97,29.92,29.87,10,10,10,21,6,26,0.00,1,,302
2012-10-17,70,55,39,45,41,37,92,66,40,30.04,29.96,29.90,10,10,10,15,4,21,0.00,0,,153
2012-10-18,69,58,47,57,51,44,86,73,59,29.93,29.86,29.78,10,10,9,20,7,26,0.00,4,,135
2012-10-19,72,61,49,55,42,30,93,58,22,29.79,29.74,29.66,10,10,2,16,5,21,0.00,1,,243
2012-10-20,65,55,45,39,36,32,66,50,34,30.01,29.85,29.73,10,10,10,20,7,24,0.00,2,,300
2012-10-21,67,53,39,40,36,33,79,54,29,30.19,30.12,30.01,10,10,10,16,4,20,0.00,1,,311
2012-10-22,77,58,39,47,42,36,92,64,35,30.28,30.20,30.14,10,10,10,10,2,12,0.00,0,,113
2012-10-23,82,65,47,50,47,45,86,58,30,30.20,30.14,30.07,10,10,10,16,4,21,0.00,0,,234
2012-10-24,83,70,56,52,49,46,77,53,28,30.20,30.14,30.09,10,10,10,7,1,9,0.00,0,,305
2012-10-25,80,65,50,51,49,46,83,58,32,30.20,30.15,30.11,10,10,10,14,3,18,0.00,0,,126
2012-10-26,67,60,52,57,54,48,93,83,72,30.19,30.11,30.04,10,8,6,13,3,15,0.00,5,,175
2012-10-27,68,63,58,56,54,49,87,73,58,30.05,29.91,29.83,10,9,5,14,7,16,0.01,8,Rain,24
2012-10-28,64,55,46,50,46,39,77,65,52,29.83,29.75,29.68,10,10,10,20,11,24,0.02,7,,326
2012-10-29,47,44,41,39,33,28,83,68,53,29.71,29.52,29.22,10,10,10,40,18,60,0.07,8,Rain,297
2012-10-30,44,41,37,28,27,25,59,55,51,29.55,29.35,29.17,10,10,9,44,17,59,T,7,Snow,280
2012-10-31,48,45,42,31,30,28,62,58,53,29.76,29.66,29.55,10,10,10,30,13,41,0.00,6,,285